Location: Unspecified
(0.0000°N, 0.0000°E)
Time: 13:20:04
(UTC+01:00)

Amateur Radio Satellites - All Passes

Search period start: 20 December 2014 12:50
Search period end: 21 December 2014 12:50
Location: Unspecified, 0.0000°N, 0.0000°E

Satellite Date Start Highest point End Downlink Frequencies (MHz)
Time Altitude Azimuth
CUBEBUG 1 20 Dec 12:54:42 12:57:03 14° 282° (WNW) 12:59:25 437.445
YUBILEINY 20 Dec 13:15:43 13:23:53 47° 267° (W) 13:32:09 435.215
BEESAT 20 Dec 13:21:45 13:25:02 19° 103° (ESE) 13:28:19 436.000
SRMSAT 20 Dec 13:26:11 13:30:16 19° 345° (NNW) 13:34:20 437.500
VERMONT LUNAR 20 Dec 13:28:27 13:31:06 20° 222° (SW) 13:33:45 437.305
BEESAT 3 20 Dec 13:33:26 13:36:30 21° 292° (WNW) 13:39:36 437.485
AIST 2 20 Dec 13:35:59 13:40:04 68° 291° (WNW) 13:44:13 435.215
PHONESAT 2.4 20 Dec 13:38:56 13:42:09 29° 223° (SW) 13:45:24 2401.200-2431.200
Oscar 19 20 Dec 14:17:15 14:22:22 81° 258° (WSW) 14:27:29 437.125/150
PCSat 20 Dec 14:18:24 14:22:49 26° 289° (WNW) 14:27:14 145.827
Gurwin Techsat 1B 20 Dec 14:25:27 14:29:00 18° 77° (ENE) 14:32:32 435.225
ITAMSAT 1 20 Dec 14:32:04 14:36:58 42° 77° (ENE) 14:41:50 435.822/435.867
AUBIESAT-1 20 Dec 14:32:52 14:36:32 56° 105° (ESE) 14:39:57 437.475
SWISSCUBE 20 Dec 14:33:03 14:37:30 42° 282° (WNW) 14:41:59 437.505
STARS 20 Dec 14:33:08 14:34:50 12° 103° (ESE) 14:36:33 437.465
ITUPSAT 1 20 Dec 14:33:12 14:37:45 48° 282° (WNW) 14:42:20 437.325
KKS-1 20 Dec 14:33:54 14:37:21 22° 102° (ESE) 14:40:49 437.445
M-CUBED/EXP-1 PRIME 20 Dec 14:58:12 15:01:49 43° 286° (WNW) 15:05:11 437.505
BEESAT 20 Dec 14:58:59 15:02:36 22° 282° (WNW) 15:06:15 436.000
SRMSAT 20 Dec 15:19:16 15:20:23 11° 354° (N) 15:21:30 437.500
AO-7 20 Dec 15:53:55 16:00:41 28° 73° (ENE) 16:07:24 29.400- 29.500
Gurwin Techsat 1B 20 Dec 16:04:10 16:08:41 29° 257° (WSW) 16:13:11 435.225
JUGNU 20 Dec 16:06:34 16:08:38 12° 8° (N) 16:10:42 437.505
STARS 20 Dec 16:07:12 16:11:02 29° 282° (WNW) 16:14:54 437.465
KKS-1 20 Dec 16:10:55 16:13:44 17° 282° (WNW) 16:16:33 437.445
ITAMSAT 1 20 Dec 16:14:27 16:16:09 12° 257° (WSW) 16:17:50 435.822/435.867
HORYU 2 20 Dec 16:16:42 16:21:01 52° 258° (WSW) 16:25:20 437.375
SRMSAT 20 Dec 17:09:44 17:10:47 10° 5° (N) 17:11:49 437.500
GONETS M04 20 Dec 17:15:25 17:22:26 28° 87° (E) 17:29:25
MOZHAYETS 4 20 Dec 17:15:47 17:20:07 43° 102° (ESE) 17:24:27
AIST 1 20 Dec 17:27:01 17:31:08 39° 274° (W) 17:35:14
AO-7 20 Dec 17:45:35 17:53:05 39° 254° (WSW) 18:00:37 29.400- 29.500
JAS-2 20 Dec 17:48:26 17:56:19 87° 257° (WSW) 18:04:03 435.910
JUGNU 20 Dec 17:53:54 17:58:27 23° 16° (NNE) 18:02:59 437.505
CUTE-I 20 Dec 17:59:17 18:02:21 16° 77° (ENE) 18:05:25 437.470
PRISM 20 Dec 18:09:31 18:12:23 19° 102° (ESE) 18:15:15 437.425
CUBESAT XI-V 20 Dec 18:38:47 18:42:05 20° 102° (ESE) 18:45:24 437.345
STRAND 1 20 Dec 18:40:54 18:44:23 19° 103° (ESE) 18:47:53 437.568
SRMSAT 20 Dec 18:56:53 19:00:53 19° 15° (NNE) 19:04:53 437.500
Cubesat XI-IV 20 Dec 19:03:27 19:08:50 83° 257° (WSW) 19:14:10 437.490
GONETS M04 20 Dec 19:11:07 19:18:50 37° 267° (W) 19:26:36
CUTE-I 20 Dec 19:37:22 19:42:09 34° 257° (WSW) 19:46:54 437.470
JUGNU 20 Dec 19:41:57 19:47:44 57° 21° (NNE) 19:53:30 437.505
PRISM 20 Dec 19:45:11 19:47:40 16° 282° (WNW) 19:50:09 437.425
SO-50 20 Dec 20:10:39 20:14:50 45° 112° (ESE) 20:19:04 436.795
CUBESAT XI-V 20 Dec 20:16:00 20:19:15 19° 282° (WNW) 20:22:32 437.345
STRAND 1 20 Dec 20:19:08 20:23:17 26° 283° (WNW) 20:27:29 437.568
DANDE 20 Dec 20:38:31 20:42:25 14° 84° (E) 20:46:14 436.750
SRMSAT 20 Dec 20:44:50 20:50:26 44° 20° (NNE) 20:56:01 437.500
CANX-2 20 Dec 21:00:52 21:04:30 28° 78° (ENE) 21:08:06 2200.000
MaSat-1 20 Dec 21:12:27 21:13:38 12° 251° (WSW) 21:14:51 437.345
BRITE-PL 20 Dec 21:21:37 21:26:08 59° 79° (E) 21:30:19 437.365/2234.400
COMPASS 1 20 Dec 21:23:03 21:26:51 34° 78° (ENE) 21:30:38 437.405
CUSAT 1 20 Dec 21:26:55 21:35:01 48° 85° (E) 21:42:29 437.405
HO-68 20 Dec 21:27:47 21:34:58 73° 76° (ENE) 21:42:07 435.675
SEEDS 20 Dec 21:28:02 21:32:08 51° 79° (ENE) 21:36:13 437.485
JUGNU 20 Dec 21:31:05 21:36:47 52° 201° (SSW) 21:42:29 437.505
CUTE 1.7 + AOD 2 20 Dec 21:31:05 21:35:19 72° 79° (E) 21:39:32 437.475
DELFI C3 20 Dec 21:41:54 21:44:29 16° 78° (ENE) 21:47:03 145.870
RS-15 20 Dec 21:44:22 21:52:14 20° 68° (ENE) 22:00:12 29.354- 29.394
DX 1 20 Dec 21:45:22 21:48:17 18° 78° (ENE) 21:51:10 434.975-435.025
GOMX 1 20 Dec 21:49:10 21:53:36 88° 258° (WSW) 21:57:47 467.674
Oscar 11 20 Dec 22:06:51 22:11:03 51° 78° (ENE) 22:15:14 145.826/435.025
UKube-1 20 Dec 22:15:19 22:19:30 46° 78° (ENE) 22:23:38 .
DOVE 4 20 Dec 22:15:25 22:19:38 54° 258° (WSW) 22:23:42 437.250
DANDE 20 Dec 22:17:05 22:25:46 78° 266° (W) 22:33:55 436.750
ANTELSAT 20 Dec 22:19:53 22:21:53 13° 102° (ESE) 22:23:52 437.575/2403.000
AAUSAT CUBESAT 2 20 Dec 22:23:21 22:27:07 33° 258° (WSW) 22:30:53 437.432
CUBEBUG 2 20 Dec 22:25:57 22:30:00 51° 79° (ENE) 22:34:00 437.445
SRMSAT 20 Dec 22:33:47 22:39:39 68° 201° (SSW) 22:45:32 437.500
ZACube-1 20 Dec 22:37:09 22:41:09 48° 78° (ENE) 22:45:08 437.345
VELOX 1 20 Dec 22:38:50 22:42:26 24° 78° (ENE) 22:45:59 145.980
CANX-2 20 Dec 22:38:59 22:40:09 11° 258° (WSW) 22:41:20 2200.000
CINEMA 3 20 Dec 22:41:54 22:45:55 44° 258° (WSW) 22:49:51 145.822/145.860
TIGRISAT 20 Dec 22:53:08 22:57:27 36° 102° (ESE) 23:01:43 435.000
POPSAT HIP 1 20 Dec 22:56:14 22:59:31 21° 102° (ESE) 23:02:48 437.405
FUNcube-1 20 Dec 23:03:48 23:07:55 65° 258° (WSW) 23:12:01 145.935
UWE-3 20 Dec 23:04:23 23:08:24 49° 258° (WSW) 23:12:23 435.000/436.395/437.385
CUSAT 1 20 Dec 23:11:19 23:17:39 24° 267° (W) 23:23:39 437.405
DELFI C3 20 Dec 23:16:44 23:19:29 18° 258° (WSW) 23:22:14 145.870
50 SAT 20 Dec 23:17:09 23:21:07 72° 78° (ENE) 23:25:06 437.505
AISAT 20 Dec 23:21:03 23:25:31 80° 258° (WSW) 23:29:56 437.250
HO-68 20 Dec 23:21:04 23:22:15 10° 254° (WSW) 23:23:27 435.675
DX 1 20 Dec 23:21:08 23:24:15 19° 257° (WSW) 23:27:22 434.975-435.025
JUGNU 20 Dec 23:21:46 23:26:05 21° 196° (SSW) 23:30:23 437.505
UNISAT 6 20 Dec 23:21:48 23:26:31 87° 282° (WNW) 23:31:12 437.425
BUGSAT 1 20 Dec 23:23:07 23:26:57 39° 102° (ESE) 23:30:51 437.445
DUCHIFAT 1 20 Dec 23:23:22 23:27:32 54° 102° (ESE) 23:31:44 145.980
CUBEBUG 1 20 Dec 23:27:53 23:31:52 33° 78° (ENE) 23:35:47 437.445
ISS 20 Dec 23:30:00 23:33:01 36° 55° (NE) 23:36:03 145.825
VERMONT LUNAR 20 Dec 23:30:32 23:33:17 21° 138° (SE) 23:36:00 437.305
QB50P2 20 Dec 23:36:44 23:41:01 89° 102° (ESE) 23:45:20 145.880/145.840
HUMSAT D 20 Dec 23:38:42 23:42:31 38° 258° (WSW) 23:46:20 437.325/437.525
PHONESAT 2.4 20 Dec 23:44:18 23:46:36 16° 138° (SE) 23:48:54 2401.200-2431.200
POLYITAN 1 20 Dec 23:45:33 23:49:49 68° 282° (WNW) 23:54:08 437.675
NANOSAT C BR1 20 Dec 23:47:53 23:52:06 63° 282° (WNW) 23:56:22 145.865
BEESAT 3 20 Dec 23:52:19 23:54:47 16° 68° (ENE) 23:57:13 437.485
RS-15 20 Dec 23:52:35 00:04:15 69° 249° (WSW) 00:16:25 29.354- 29.394
YUBILEINY 20 Dec 23:52:58 00:01:12 44° 93° (E) 00:09:20 435.215
ANTELSAT 20 Dec 23:54:14 23:58:24 32° 282° (WNW) 00:02:33 437.575/2403.000
QB50P1 21 Dec 00:02:32 00:06:29 38° 282° (WNW) 00:10:29 145.935-145.965
VELOX 1 21 Dec 00:16:16 00:18:44 15° 257° (WSW) 00:21:11 145.980
ESTCUBE 1 21 Dec 00:16:40 00:21:01 45° 258° (WSW) 00:25:21 437.505/2401.250
SRMSAT 21 Dec 00:24:10 00:29:01 26° 198° (SSW) 00:33:53 437.500
BEESAT 2 21 Dec 00:30:38 00:34:35 49° 68° (ENE) 00:38:29 435.950
POPSAT HIP 1 21 Dec 00:32:39 00:35:09 15° 282° (WNW) 00:37:39 437.405
TIGRISAT 21 Dec 00:32:42 00:33:53 11° 282° (WNW) 00:35:05 435.000
TISAT 1 21 Dec 00:32:54 00:36:57 45° 78° (ENE) 00:40:58 437.305
SPROUT 21 Dec 00:35:58 00:40:06 45° 78° (ENE) 00:44:11 437.525
O/OREOS (USA 219) 21 Dec 00:44:32 00:48:59 66° 284° (WNW) 00:53:23 437.305
CUBEBUG 1 21 Dec 01:07:42 01:07:56 10° 257° (WSW) 01:08:10 437.445
VERMONT LUNAR 21 Dec 01:08:38 01:11:28 22° 317° (NW) 01:14:18 437.305
PCSat 21 Dec 01:10:37 01:15:57 65° 71° (ENE) 01:21:17 145.827
Oscar 19 21 Dec 01:13:58 01:17:04 16° 103° (ESE) 01:20:10 437.125/150
JUGNU 21 Dec 01:14:23 01:15:55 11° 187° (S) 01:17:27 437.505
SWISSCUBE 21 Dec 01:18:59 01:22:24 19° 78° (ENE) 01:25:47 437.505
ITUPSAT 1 21 Dec 01:19:43 01:22:51 17° 78° (ENE) 01:25:59 437.325
PHONESAT 2.4 21 Dec 01:21:54 01:25:11 32° 317° (NW) 01:28:27 2401.200-2431.200
BEESAT 3 21 Dec 01:29:49 01:32:41 19° 248° (WSW) 01:35:33 437.485
AIST 2 21 Dec 01:35:29 01:39:32 51° 248° (WSW) 01:43:32 435.215
BEESAT 21 Dec 01:42:58 01:47:22 36° 78° (ENE) 01:51:45 436.000
YUBILEINY 21 Dec 01:51:07 01:57:34 23° 273° (W) 02:04:02 435.215
SRMSAT 21 Dec 02:16:19 02:18:54 13° 190° (S) 02:21:29 437.500
AUBIESAT-1 21 Dec 02:34:22 02:38:47 66° 74° (ENE) 02:43:28 437.475
STARS 21 Dec 02:43:46 02:46:38 17° 78° (ENE) 02:49:29 437.465
KKS-1 21 Dec 02:46:27 02:50:25 32° 78° (ENE) 02:54:21 437.445
Oscar 19 21 Dec 02:51:36 02:56:07 31° 283° (WNW) 03:00:38 437.125/150
SWISSCUBE 21 Dec 02:56:18 02:59:59 22° 257° (WSW) 03:03:38 437.505
ITUPSAT 1 21 Dec 02:56:35 03:00:28 25° 257° (WSW) 03:04:21 437.325
HORYU 2 21 Dec 02:57:16 02:57:51 10° 103° (ESE) 02:58:27 437.375
M-CUBED/EXP-1 PRIME 21 Dec 03:00:11 03:04:26 48° 255° (WSW) 03:08:58 437.505
Gurwin Techsat 1B 21 Dec 03:02:19 03:07:27 52° 103° (ESE) 03:12:36 435.225
ITAMSAT 1 21 Dec 03:06:47 03:11:55 73° 283° (WNW) 03:17:07 435.822/435.867
BEESAT 21 Dec 03:23:31 03:24:55 11° 257° (WSW) 03:26:20 436.000
AIST 1 21 Dec 04:00:10 04:00:44 10° 86° (E) 04:01:18
AO-7 21 Dec 04:19:11 04:27:03 46° 106° (ESE) 04:34:53 29.400- 29.500
STARS 21 Dec 04:19:39 04:22:50 20° 258° (WSW) 04:26:01 437.465
KKS-1 21 Dec 04:25:59 04:26:46 10° 257° (WSW) 04:27:33 437.445
HORYU 2 21 Dec 04:30:11 04:34:14 34° 282° (WNW) 04:38:18 437.375
JUGNU 21 Dec 04:52:36 04:56:09 16° 167° (SSE) 04:59:42 437.505
JAS-2 21 Dec 05:23:38 05:28:31 44° 103° (ESE) 05:33:31 435.910
MOZHAYETS 4 21 Dec 05:32:35 05:37:13 77° 78° (ENE) 05:41:50
AIST 1 21 Dec 05:34:32 05:38:06 26° 266° (W) 05:41:41
GONETS M04 21 Dec 05:47:28 05:56:03 56° 93° (E) 06:04:36
SRMSAT 21 Dec 05:56:30 05:59:33 14° 169° (S) 06:02:37 437.500
Cubesat XI-IV 21 Dec 06:04:54 06:08:34 19° 103° (ESE) 06:12:14 437.490
AO-7 21 Dec 06:13:15 06:19:26 24° 287° (WNW) 06:25:39 29.400- 29.500
PRISM 21 Dec 06:13:41 06:16:59 22° 78° (ENE) 06:20:16 437.425
CUTE-I 21 Dec 06:36:39 06:41:43 46° 103° (ESE) 06:46:48 437.470
JUGNU 21 Dec 06:40:14 06:45:38 37° 160° (SSE) 06:51:04 437.505
CUBESAT XI-V 21 Dec 06:56:38 07:00:56 35° 78° (ENE) 07:05:11 437.345
STRAND 1 21 Dec 07:12:16 07:17:12 47° 78° (ENE) 07:22:05 437.568
Cubesat XI-IV 21 Dec 07:43:54 07:48:22 28° 283° (WNW) 07:52:52 437.490
SRMSAT 21 Dec 07:44:12 07:49:22 30° 162° (SSE) 07:54:32 437.500
GONETS M04 21 Dec 07:47:05 07:52:28 18° 273° (W) 07:57:52
PRISM 21 Dec 07:49:58 07:52:14 14° 258° (WSW) 07:54:30 437.425
CUTE-I 21 Dec 08:20:08 08:21:30 11° 283° (WNW) 08:22:51 437.470
SO-50 21 Dec 08:23:17 08:28:11 89° 248° (WSW) 08:33:00 436.795
JUGNU 21 Dec 08:28:47 08:34:44 82° 339° (NNW) 08:40:44 437.505
MaSat-1 21 Dec 08:35:47 08:38:18 34° 286° (WNW) 08:40:38 437.345
CUBESAT XI-V 21 Dec 08:36:50 08:38:04 11° 258° (WSW) 08:39:18 437.345
GOMX 1 21 Dec 08:37:18 08:39:00 11° 104° (ESE) 08:40:42 467.674
AAUSAT CUBESAT 2 21 Dec 08:55:57 08:56:50 11° 102° (ESE) 08:57:43 437.432
DOVE 4 21 Dec 08:59:48 09:02:51 16° 103° (ESE) 09:05:56 437.250
CANX-2 21 Dec 09:07:45 09:11:40 35° 102° (ESE) 09:15:35 2200.000
HO-68 21 Dec 09:19:28 09:26:28 62° 105° (ESE) 09:33:29 435.675
CINEMA 3 21 Dec 09:22:46 09:25:39 16° 102° (ESE) 09:28:34 145.822/145.860
COMPASS 1 21 Dec 09:28:25 09:32:23 41° 102° (ESE) 09:36:21 437.405
RS-15 21 Dec 09:29:17 09:34:57 15° 114° (ESE) 09:40:28 29.354- 29.394
DANDE 21 Dec 09:30:05 09:30:37 10° 93° (E) 09:31:10 436.750
SRMSAT 21 Dec 09:32:42 09:38:43 79° 159° (SSE) 09:44:43 437.500
SEEDS 21 Dec 09:34:15 09:38:28 65° 101° (ESE) 09:42:40 437.485
CUTE 1.7 + AOD 2 21 Dec 09:38:07 09:42:24 89° 281° (W) 09:46:41 437.475
UWE-3 21 Dec 09:42:46 09:43:56 11° 102° (ESE) 09:45:06 435.000/436.395/437.385
DELFI C3 21 Dec 09:43:51 09:46:34 17° 102° (ESE) 09:49:18 145.870
BRITE-PL 21 Dec 09:46:45 09:51:55 63° 281° (WNW) 09:57:26 437.365/2234.400
DX 1 21 Dec 09:54:44 09:58:14 24° 103° (ESE) 10:01:45 434.975-435.025
GOMX 1 21 Dec 10:11:44 10:16:41 46° 281° (W) 10:21:54 467.674
Oscar 11 21 Dec 10:15:46 10:20:05 71° 102° (ESE) 10:24:24 145.826/435.025
CUSAT 1 21 Dec 10:17:07 10:19:37 39° 277° (W) 10:22:28 437.405
JUGNU 21 Dec 10:18:43 10:23:55 31° 341° (NNW) 10:29:08 437.505
UKube-1 21 Dec 10:24:33 10:28:50 64° 102° (ESE) 10:33:08 .
AAUSAT CUBESAT 2 21 Dec 10:28:38 10:32:14 28° 282° (WNW) 10:35:50 437.432
ANTELSAT 21 Dec 10:32:56 10:35:44 17° 78° (ENE) 10:38:32 437.575/2403.000
DOVE 4 21 Dec 10:35:40 10:40:15 33° 281° (W) 10:45:00 437.250
QB50P1 21 Dec 10:37:40 10:38:01 10° 78° (ENE) 10:38:22 145.935-145.965
CUBEBUG 2 21 Dec 10:38:12 10:42:58 84° 102° (ESE) 10:47:46 437.445
ZACube-1 21 Dec 10:47:05 10:51:40 73° 102° (ESE) 10:56:16 437.345
VELOX 1 21 Dec 10:50:47 10:54:50 35° 102° (ESE) 10:58:54 145.980
ESTCUBE 1 21 Dec 10:57:02 10:58:58 13° 102° (ESE) 11:00:55 437.505/2401.250
CINEMA 3 21 Dec 10:58:12 11:02:32 31° 281° (WNW) 11:06:57 145.822/145.860
POPSAT HIP 1 21 Dec 11:03:12 11:06:45 26° 78° (ENE) 11:10:16 437.405
ISS 21 Dec 11:05:01 11:07:43 23° 126° (SE) 11:10:25 145.825
TIGRISAT 21 Dec 11:06:47 11:10:56 52° 78° (ENE) 11:15:07 435.000
HO-68 21 Dec 11:10:44 11:13:48 13° 285° (WNW) 11:16:54 435.675
VERMONT LUNAR 21 Dec 11:11:03 11:13:30 18° 42° (NE) 11:15:57 437.305
FUNcube-1 21 Dec 11:13:50 11:18:15 48° 282° (WNW) 11:22:41 145.935
UWE-3 21 Dec 11:15:53 11:20:10 36° 282° (WNW) 11:24:29 435.000/436.395/437.385
50 SAT 21 Dec 11:18:44 11:22:52 78° 102° (ESE) 11:27:02 437.505
DELFI C3 21 Dec 11:19:00 11:21:34 16° 282° (WNW) 11:24:09 145.870
SRMSAT 21 Dec 11:22:26 11:27:59 38° 340° (NNW) 11:33:31 437.500
BUGSAT 1 21 Dec 11:27:15 11:31:16 45° 78° (ENE) 11:35:12 437.445
PHONESAT 2.4 21 Dec 11:27:25 11:29:28 14° 42° (NE) 11:31:33 2401.200-2431.200
DUCHIFAT 1 21 Dec 11:30:17 11:34:29 69° 78° (ENE) 11:38:39 145.980
DX 1 21 Dec 11:31:56 11:34:13 14° 282° (WNW) 11:36:30 434.975-435.025
AISAT 21 Dec 11:33:55 11:38:14 52° 282° (WNW) 11:42:36 437.250
RS-15 21 Dec 11:35:54 11:47:14 79° 290° (WNW) 11:58:09 29.354- 29.394
UNISAT 6 21 Dec 11:36:09 11:40:19 53° 258° (WSW) 11:44:31 437.425
CUBEBUG 1 21 Dec 11:38:18 11:42:28 46° 102° (ESE) 11:46:40 437.445
QB50P2 21 Dec 11:44:09 11:48:23 71° 258° (WSW) 11:52:34 145.880/145.840
HUMSAT D 21 Dec 11:44:48 11:48:41 32° 282° (WNW) 11:52:35 437.325/437.525
BEESAT 3 21 Dec 11:48:01 11:50:42 17° 112° (ESE) 11:53:24 437.485
POLYITAN 1 21 Dec 11:53:17 11:57:24 51° 258° (WSW) 12:01:28 437.675
NANOSAT C BR1 21 Dec 11:55:05 11:59:10 48° 258° (WSW) 12:03:13 145.865
PCSat 21 Dec 12:06:36 12:09:04 13° 110° (ESE) 12:11:31 145.827
ANTELSAT 21 Dec 12:09:17 12:12:16 19° 258° (WSW) 12:15:16 437.575/2403.000
QB50P1 21 Dec 12:09:58 12:13:39 29° 258° (WSW) 12:17:19 145.935-145.965
JUGNU 21 Dec 12:10:22 12:13:32 15° 348° (NNW) 12:16:43 437.505
YUBILEINY 21 Dec 12:25:48 12:34:30 84° 87° (E) 12:43:17 435.215
BEESAT 2 21 Dec 12:27:04 12:30:59 58° 112° (ESE) 12:34:58 435.950
ESTCUBE 1 21 Dec 12:31:45 12:35:34 28° 282° (WNW) 12:39:24 437.505/2401.250
TISAT 1 21 Dec 12:39:15 12:43:25 57° 102° (ESE) 12:47:37 437.305
POPSAT HIP 1 21 Dec 12:40:56 12:42:22 12° 258° (WSW) 12:43:48 437.405
ISS 21 Dec 12:43:17 12:44:06 11° 306° (NW) 12:44:55 145.825
